[[{"header":{"parameterUnit":"m.s-1","parameterCategory":1,"la1":30.2991,"la2":30.254,"lo1":-89.0895,"lo2":-89.0444,"dy":0.0017,"dx":0.0017,"nx":28,"ny":28,"refTime":"2024-05-24T21:00:00:Z","depth":0,"parameterNumber":2,"parameterNumberName":"U-component_of_WINDS"},"data":[0,0,0,0,0,0,0,0,0,0,0,0,0,0,0,0,0,0,0,0,0,0,0,0,0,0,0,0,0,0,0,0,0,0,0,0,0,0,0,0,0,0,0,0,0,0,0,0,0,0,0,0,0,0,0,0,0,0,0.6538,0.6538,0,0.6605,0.6606,0.6607,0.6617,0.6617,0.6616,0.6616,0.6683,0.6686,0.6688,0,0,0,0,0,0,0,0,0,0,0,0,0,0.6415,0.6417,0.6538,0.6538,0.6539,0.6605,0.6606,0.6607,0.6618,0.6617,0.6616,0.6615,0.6683,0.6685,0.6688,0,0,0,0,0,0,0,0,0,0,0,0,0,0.6474,0.6418,0.6537,0.6553,0.6555,0.6605,0.6606,0.6607,0.6618,0.6617,0.6616,0.6615,0.6682,0.6685,0.6689,0.6728,0,0,0.6699,0.6701,0,0,0,0,0,0,0,0,0.647,0.6478,0.655,0.6552,0.6554,0.6602,0.6587,0.6648,0.6618,0.6594,0.6616,0.6615,0.6657,0.6662,0.6677,0.6731,0.6734,0.67,0.6702,0.6703,0.6704,0,0,0,0,0,0,0,0.6466,0.6475,0.6564,0.655,0.6553,0.6555,0.6562,0.6599,0.6629,0.6596,0.6597,0.6605,0.6658,0.6673,0.6679,0.6735,0.6699,0.6703,0.6705,0.6706,0.6822,0.6823,0,0,0,0,0,0,0.646,0.6472,0.6562,0.6566,0.6509,0.6558,0.6566,0.6587,0.6629,0.6635,0.6605,0.6605,0.6668,0.6674,0.6681,0.6728,0.6703,0.6706,0.6709,0.6821,0.6822,0.6823,0,0,0,0,0,0,0.6457,0.6468,0.6559,0.6519,0.6531,0.6561,0.6585,0.6589,0.6605,0.6636,0.6641,0.6616,0.6667,0.6676,0.6716,0.6731,0.6708,0.6711,0.682,0.6821,0.6823,0.6824,0,0,0,0,0,0,0.6454,0.6467,0.6483,0.652,0.6533,0.6594,0.6586,0.6591,0.6611,0.6611,0.6648,0.6653,0.6667,0.671,0.6719,0.6735,0.6714,0.6819,0.6821,0.6822,0.6823,0.6825,0.6828,0,0,0,0,0,0.6449,0.6481,0.6484,0.6495,0.6554,0.6595,0.6602,0.6619,0.6612,0.6628,0.6648,0.6652,0.6728,0.6714,0.6724,0.6742,0.6818,0.682,0.6822,0.6822,0.6825,0.6827,0,0,0,0,0,0,0.6445,0.6486,0.649,0.6534,0.6561,0.6597,0.6617,0.6622,0.6651,0.665,0.6669,0.6677,0.6715,0.6733,0.6717,0.6781,0.6772,0.6776,0.6768,0.6772,0.6774,0.6769,0.6717,0,0,0,0,0,0.6449,0.648,0.6513,0.6549,0.6563,0.6587,0.6606,0.6616,0.6645,0.6656,0.6679,0.6705,0.6735,0.6754,0.6784,0.6825,0.6832,0.6842,0.6844,0.6846,0.6849,0.6871,0.6875,0.683,0.683,0.683,0,0,0.6458,0.6484,0.6502,0.6549,0.6571,0.6601,0.6597,0.6629,0.6651,0.6661,0.6699,0.6716,0.6747,0.6788,0.6806,0.6803,0.6863,0.6849,0.685,0.6852,0.6873,0.6877,0.6881,0.6832,0.6832,0.6831,0,0,0.649,0.6513,0.6545,0.6567,0.66,0.6616,0.6623,0.6658,0.667,0.6709,0.6716,0.6742,0.6793,0.6814,0.6832,0.6869,0.6873,0.6878,0.689,0.6911,0.6914,0.6917,0.6929,0.6934,0.6881,0.6881,0.6881,0,0.6497,0.6543,0.6561,0.6592,0.6612,0.6621,0.6653,0.6673,0.6713,0.6726,0.6722,0.6785,0.6807,0.6851,0.686,0.6874,0.6882,0.6874,0.6913,0.6916,0.6919,0.6931,0.6935,0.6882,0.6881,0.6881,0.6881,0,0.6549,0.6581,0.6602,0.6641,0.6663,0.6694,0.6715,0.6735,0.6743,0.6759,0.6797,0.6823,0.6857,0.6868,0.6877,0.6913,0.691,0.6909,0.69,0.6923,0.6934,0.6939,0.6882,0.6882,0.6882,0.6882,0,0,0.6581,0.6628,0.6636,0.6653,0.6689,0.6713,0.6744,0.6777,0.6793,0.682,0.6845,0.6888,0.6886,0.6906,0.6916,0.6934,0.696,0.6931,0.6932,0.6934,0.7,0.7,0.7005,0.6963,0.6964,0.6964,0.6997,0,0.6616,0.6672,0.6688,0.6734,0.6763,0.6772,0.6798,0.6822,0.6838,0.6863,0.6879,0.6909,0.6905,0.6917,0.6935,0.6953,0.6973,0.6951,0.6985,0.6986,0.6977,0.7011,0.7012,0.7042,0.7002,0.7002,0.7003,0,0.6665,0.6693,0.6742,0.6773,0.6786,0.681,0.684,0.6865,0.6892,0.6901,0.6922,0.6931,0.6961,0.6951,0.6993,0.6977,0.6992,0.7002,0.7004,0.7007,0.6996,0.7015,0.7052,0.7056,0.701,0.701,0.7009,0,0.6681,0.6731,0.6767,0.6781,0.6819,0.6835,0.6851,0.6877,0.6896,0.6922,0.6934,0.6963,0.6979,0.7001,0.7016,0.7008,0.7056,0.7048,0.7064,0.7063,0.7073,0.7072,0.7112,0.7084,0.7084,0.7084,0.7084,0,0.6718,0.6748,0.6775,0.6797,0.6829,0.6846,0.6878,0.6894,0.6917,0.6941,0.6951,0.6973,0.6992,0.7016,0.7029,0.706,0.7067,0.7075,0.7078,0.7074,0.7073,0.7084,0.7082,0.7085,0.7085,0.7084,0.7084,0,0.6743,0.6762,0.6801,0.6833,0.6842,0.6864,0.6891,0.6912,0.6926,0.6957,0.6965,0.6988,0.7017,0.7034,0.7071,0.7079,0.7113,0.7116,0.7104,0.7106,0.712,0.7118,0.7168,0.7175,0.7142,0.7143,0.7143,0,0.6765,0.6788,0.6822,0.6839,0.6855,0.6883,0.6901,0.6918,0.6937,0.6968,0.6984,0.7014,0.7038,0.7084,0.7103,0.7131,0.7133,0.7149,0.7137,0.7132,0.7132,0.713,0.7132,0.715,0.7151,0.7151,0.7151,0,0.6802,0.681,0.6837,0.6866,0.6888,0.6912,0.6936,0.6949,0.6969,0.6989,0.7019,0.7038,0.7075,0.7103,0.7132,0.7147,0.7152,0.7154,0.7159,0.7155,0.7147,0.7151,0.7109,0.7153,0.7153,0.7153,0.7153,0.7153,0.6825,0.6845,0.6872,0.6901,0.692,0.6942,0.6962,0.698,0.7005,0.7037,0.7045,0.7075,0.7099,0.7139,0.7154,0.7178,0.7175,0.7183,0.7185,0.7186,0.7186,0.7144,0.7183,0.7183,0.7183,0.7183,0.7183,0,0.6861,0.6879,0.6905,0.6938,0.696,0.6963,0.6989,0.7007,0.7034,0.7057,0.708,0.7113,0.714,0.7161,0.7189,0.7203,0.7206,0.721,0.7209,0.7212,0.7187,0.7179,0.7207,0.7207,0.7207,0.7207,0.7207,0.7207,0.6883,0.6917,0.6927,0.697,0.6987,0.7018,0.7032,0.7051,0.7069,0.7106,0.7128,0.7142,0.7163,0.7192,0.7216,0.7222,0.7231,0.7234,0.724,0.7216,0.7214,0.7211,0.7204,0.7236,0.7236,0.7263,0.7263,0.7263]},{"header":{"parameterUnit":"m.s-1","parameterCategory":1,"la1":30.2991,"la2":30.254,"lo1":-89.0895,"lo2":-89.0444,"dy":0.0017,"dx":0.0017,"nx":28,"ny":28,"refTime":"2024-05-24T21:00:00:Z","depth":0,"parameterNumber":3,"parameterNumberName":"V-component_of_WINDS"},"data":[0,0,0,0,0,0,0,0,0,0,0,0,0,0,0,0,0,0,0,0,0,0,0,0,0,0,0,0,0,0,0,0,0,0,0,0,0,0,0,0,0,0,0,0,0,0,0,0,0,0,0,0,0,0,0,0,0,0,5.396,5.3961,0,5.4001,5.4001,5.4002,5.3957,5.3955,5.3953,5.3952,5.399,5.3993,5.3995,0,0,0,0,0,0,0,0,0,0,0,0,0,5.3841,5.3843,5.396,5.3961,5.3961,5.4001,5.4001,5.4002,5.3957,5.3955,5.3953,5.3951,5.3989,5.3992,5.3995,0,0,0,0,0,0,0,0,0,0,0,0,0,5.3888,5.3844,5.396,5.3944,5.3943,5.4001,5.4001,5.4002,5.3957,5.3955,5.3952,5.395,5.3988,5.3992,5.3996,5.4071,0,0,5.4008,5.401,0,0,0,0,0,0,0,0,5.3885,5.3892,5.3946,5.3945,5.3944,5.3971,5.3973,5.4025,5.3958,5.3952,5.3951,5.3949,5.3986,5.399,5.4003,5.4073,5.4075,5.4008,5.4011,5.4012,5.4013,0,0,0,0,0,0,0,5.3882,5.389,5.3976,5.3947,5.3945,5.3933,5.3937,5.3983,5.3982,5.3952,5.3949,5.3954,5.3985,5.3999,5.4003,5.4075,5.4008,5.4012,5.4014,5.4016,5.4207,5.421,0,0,0,0,0,0,5.3881,5.3888,5.3975,5.3977,5.3908,5.3937,5.3942,5.3965,5.3982,5.3982,5.3957,5.3952,5.3994,5.3999,5.4004,5.4092,5.4012,5.4016,5.4018,5.4204,5.4208,5.4211,0,0,0,0,0,0,5.3879,5.3889,5.3973,5.3932,5.3942,5.3942,5.3969,5.3967,5.3981,5.3985,5.3985,5.3972,5.3992,5.3999,5.4055,5.4093,5.4018,5.4021,5.4201,5.4205,5.4209,5.4269,0,0,0,0,0,0,5.3876,5.3889,5.3918,5.3933,5.3944,5.4024,5.3971,5.397,5.3989,5.3983,5.3999,5.3999,5.399,5.4049,5.4059,5.4097,5.4024,5.4198,5.4203,5.4208,5.4264,5.4275,5.4285,0,0,0,0,0,5.3871,5.3934,5.392,5.3931,5.3981,5.4027,5.4033,5.4022,5.3992,5.4021,5.4023,5.3999,5.4088,5.4055,5.4065,5.4106,5.4195,5.4202,5.4207,5.4259,5.4273,5.4284,0,0,0,0,0,0,5.3923,5.3935,5.392,5.399,5.4007,5.4019,5.4055,5.4037,5.4063,5.4057,5.4041,5.4045,5.4104,5.4111,5.4074,5.4178,5.4136,5.4145,5.4172,5.4185,5.4195,5.4192,5.4028,0,0,0,0,0,5.3942,5.3979,5.3988,5.4048,5.4057,5.4055,5.4074,5.4064,5.4082,5.4089,5.4095,5.4112,5.4144,5.4165,5.4194,5.4265,5.4267,5.4298,5.4308,5.4316,5.4323,5.4359,5.4373,5.4231,5.4231,5.4231,0,0,5.3983,5.3994,5.4018,5.4058,5.4071,5.4108,5.4062,5.4103,5.413,5.4095,5.4148,5.4153,5.4171,5.4234,5.4262,5.4241,5.4363,5.4324,5.4331,5.4333,5.4367,5.438,5.4392,5.4235,5.4234,5.4234,0,0,5.4075,5.4088,5.4139,5.4153,5.4172,5.417,5.4182,5.4197,5.4199,5.4252,5.4226,5.4257,5.4312,5.4325,5.4339,5.4436,5.4414,5.4446,5.4499,5.4534,5.4545,5.4555,5.4588,5.46,5.4453,5.4453,5.4453,0,5.4123,5.4179,5.4167,5.421,5.4228,5.4198,5.4248,5.4262,5.429,5.4302,5.4279,5.4346,5.4356,5.4421,5.4445,5.4458,5.4469,5.4443,5.4545,5.4555,5.4564,5.4595,5.4607,5.4457,5.4456,5.4456,5.4456,0,5.4235,5.4274,5.4312,5.4341,5.4363,5.4409,5.4403,5.4426,5.4414,5.4414,5.4467,5.4479,5.4509,5.4524,5.4512,5.4587,5.4573,5.4548,5.4505,5.4581,5.461,5.4622,5.4462,5.4461,5.446,5.4459,0,0,5.4361,5.4382,5.4396,5.4408,5.4427,5.4457,5.4501,5.4531,5.4551,5.4571,5.4607,5.4653,5.463,5.4646,5.4635,5.4667,5.474,5.4637,5.4637,5.4654,5.482,5.4839,5.4853,5.4726,5.4728,5.473,5.4818,0,5.4453,5.4531,5.4521,5.4595,5.4629,5.4602,5.464,5.4655,5.4656,5.4684,5.4685,5.4718,5.4685,5.4694,5.4724,5.4725,5.4773,5.4718,5.4757,5.4759,5.4753,5.4868,5.4888,5.4971,5.483,5.4832,5.4833,0,5.457,5.4595,5.4672,5.4685,5.4699,5.4734,5.476,5.4788,5.4804,5.4802,5.482,5.4804,5.4846,5.4804,5.4861,5.4825,5.484,5.4843,5.4846,5.4848,5.48,5.4872,5.4997,5.5009,5.4851,5.485,5.4848,0,5.4653,5.4705,5.4758,5.4769,5.4785,5.481,5.4818,5.4831,5.485,5.4872,5.4883,5.4911,5.4925,5.4946,5.4937,5.4907,5.4996,5.4952,5.4994,5.4994,5.5013,5.5012,5.5141,5.5025,5.5025,5.5025,5.5025,0,5.4755,5.4803,5.4795,5.4827,5.488,5.4867,5.4919,5.4923,5.4935,5.4967,5.4944,5.4974,5.4961,5.499,5.4983,5.5031,5.5038,5.5036,5.5034,5.5038,5.5038,5.5047,5.504,5.5028,5.5028,5.5027,5.5026,0,5.4856,5.4852,5.4908,5.4918,5.4922,5.496,5.4969,5.4998,5.4997,5.5037,5.5046,5.5043,5.5076,5.5069,5.5105,5.51,5.5159,5.515,5.5154,5.5152,5.5193,5.5189,5.5331,5.5349,5.5223,5.5224,5.5225,0,5.4921,5.4958,5.4972,5.4992,5.5001,5.5034,5.5052,5.5041,5.5061,5.5081,5.5107,5.5138,5.5161,5.5214,5.5215,5.5242,5.5232,5.528,5.5236,5.5238,5.5231,5.5228,5.5231,5.5289,5.529,5.5291,5.5292,0,5.5037,5.5033,5.5061,5.5088,5.5111,5.5131,5.5149,5.5167,5.5156,5.518,5.5213,5.5231,5.5267,5.5297,5.5321,5.5328,5.5308,5.5306,5.5317,5.5321,5.5321,5.532,5.5177,5.5303,5.5302,5.5301,5.53,5.53,5.5121,5.5151,5.5166,5.5197,5.5209,5.5227,5.5254,5.5257,5.5284,5.5313,5.5304,5.5341,5.5355,5.5385,5.5395,5.5423,5.5404,5.542,5.5424,5.5428,5.5432,5.5318,5.5427,5.5427,5.5427,5.5426,5.5426,0,5.5234,5.5242,5.5271,5.5297,5.5321,5.5301,5.532,5.5341,5.5374,5.5388,5.5412,5.5449,5.5477,5.548,5.5507,5.5529,5.552,5.5536,5.5533,5.5535,5.5448,5.5435,5.5542,5.5542,5.5542,5.5542,5.5542,5.5542,5.5295,5.5345,5.5343,5.5398,5.5405,5.5441,5.5453,5.5469,5.548,5.5522,5.5546,5.5548,5.5557,5.5584,5.5609,5.5609,5.5619,5.5638,5.5634,5.5553,5.5541,5.553,5.5518,5.5641,5.5641,5.5719,5.5719,5.572]}]]